TimeEDT,TemperatureF,Dew PointF,Humidity,Sea Level PressureIn,VisibilityMPH,Wind Direction,Wind SpeedMPH,Gust SpeedMPH,PrecipitationIn,Events,Conditions,WindDirDegrees,DateUTC
12:17 AM,44.1,42.1,93,29.87,7.0,West,9.2,-,N/A,,Overcast,260,2014-03-20 04:17:00
12:54 AM,44.1,42.1,93,29.86,5.0,West,10.4,19.6,N/A,,Overcast,260,2014-03-20 04:54:00
1:10 AM,44.1,41.0,89,29.86,7.0,West,9.2,19.6,N/A,,Overcast,270,2014-03-20 05:10:00
1:30 AM,44.1,42.1,93,29.85,7.0,West,5.8,-,N/A,,Overcast,260,2014-03-20 05:30:00
1:54 AM,44.1,42.1,93,29.84,8.0,Variable,5.8,-,N/A,,Overcast,0,2014-03-20 05:54:00
2:54 AM,44.1,42.1,93,29.83,7.0,West,9.2,-,N/A,,Overcast,270,2014-03-20 06:54:00
3:54 AM,45.0,42.1,90,29.83,8.0,WSW,10.4,19.6,N/A,,Overcast,250,2014-03-20 07:54:00
4:54 AM,45.0,42.1,90,29.83,7.0,WSW,9.2,-,N/A,,Overcast,250,2014-03-20 08:54:00
5:37 AM,45.0,43.0,93,29.83,6.0,Variable,6.9,-,N/A,,Overcast,0,2014-03-20 09:37:00
5:51 AM,44.6,42.8,93,29.84,6.0,WSW,5.8,-,N/A,,Overcast,240,2014-03-20 09:51:00
5:54 AM,45.0,43.0,93,29.84,6.0,WSW,6.9,-,N/A,,Overcast,250,2014-03-20 09:54:00
6:54 AM,45.0,43.0,93,29.87,6.0,West,6.9,-,N/A,,Overcast,260,2014-03-20 10:54:00
7:54 AM,45.0,42.1,90,29.88,5.0,Variable,4.6,-,N/A,,Overcast,0,2014-03-20 11:54:00
8:34 AM,46.0,42.1,86,29.88,6.0,West,6.9,-,N/A,,Scattered Clouds,270,2014-03-20 12:34:00
8:54 AM,46.9,41.0,80,29.88,9.0,West,9.2,-,N/A,,Clear,270,2014-03-20 12:54:00
9:54 AM,51.1,39.0,63,29.89,10.0,WNW,10.4,-,N/A,,Clear,290,2014-03-20 13:54:00
10:54 AM,54.0,35.1,49,29.89,10.0,WNW,12.7,21.9,N/A,,Clear,290,2014-03-20 14:54:00
11:54 AM,54.0,30.9,41,29.88,10.0,West,17.3,27.6,N/A,,Clear,280,2014-03-20 15:54:00
12:54 PM,57.0,34.0,42,29.88,10.0,West,12.7,21.9,N/A,,Partly Cloudy,280,2014-03-20 16:54:00
1:54 PM,57.0,28.9,34,29.87,10.0,WNW,15.0,25.3,N/A,,Partly Cloudy,300,2014-03-20 17:54:00
2:54 PM,59.0,28.0,31,29.86,10.0,WNW,17.3,24.2,N/A,,Clear,290,2014-03-20 18:54:00
3:54 PM,59.0,21.9,24,29.85,10.0,West,23.0,32.2,N/A,,Clear,280,2014-03-20 19:54:00
4:54 PM,59.0,21.0,23,29.86,10.0,West,17.3,29.9,N/A,,Clear,280,2014-03-20 20:54:00
5:54 PM,57.9,21.0,24,29.88,10.0,WNW,11.5,24.2,N/A,,Clear,300,2014-03-20 21:54:00
6:54 PM,55.0,21.0,27,29.89,10.0,WNW,9.2,-,N/A,,Clear,300,2014-03-20 22:54:00
7:54 PM,53.1,21.0,29,29.92,10.0,NW,4.6,-,N/A,,Clear,310,2014-03-20 23:54:00
8:54 PM,51.1,21.0,31,29.94,10.0,Variable,4.6,-,N/A,,Clear,0,2014-03-21 00:54:00
9:54 PM,50.0,21.9,33,29.96,10.0,WNW,5.8,-,N/A,,Clear,300,2014-03-21 01:54:00
10:54 PM,48.0,24.1,39,30.00,10.0,North,4.6,-,N/A,,Clear,350,2014-03-21 02:54:00
11:54 PM,46.0,24.1,42,30.01,10.0,NW,3.5,-,N/A,,Clear,310,2014-03-21 03:54:00